Weather History for Roosevelt Roads, PR

Change the Weather History Date:

Tuesday, September 3, 2013

  Actual Average Record
Temperature  
Mean Temperature 84 °F -  
Max Temperature 89 °F 86 °F 90 °F (2012)
Min Temperature 78 °F 74 °F 73 °F (2012)
Cooling Degree Days 18    
Growing Degree Days 34 (Base 50)    
Moisture  
Dew Point 76 °F    
Average Humidity 82    
Maximum Humidity 100    
Minimum Humidity 67    
Precipitation  
Precipitation 0.24 in - - ()
Sea Level Pressure  
Sea Level Pressure 29.92 in    
Wind  
Wind Speed 8 mph (ENE)    
Max Wind Speed 15 mph    
Max Gust Speed 29 mph    
Visibility 9 miles    
Events Rain    
Averages and records for this station are not official NWS values.
T = Trace of Precipitation, MM = Missing Value Source: NWS Daily Summary

Daily Weather History Graph

Daily Weather History Graph

Search for Another Location

Airport:

Trip Planner

Search our weather history database for the weather conditions in past years. The results will help you decide how hot, cold, wet, or windy it might be!

Date:

Astronomy

Sep. 03, 2013 Rise Set
Actual Time 6:08 AM AST 6:34 PM AST
Civil Twilight 5:46 AM AST 6:56 PM AST
Nautical Twilight 5:20 AM AST 7:22 PM AST
Astronomical Twilight 4:54 AM AST 7:48 PM AST
Moon 4:26 AM AST (9/3) 5:16 PM AST (9/3)
Length of Visible Light 13h 10m
Length of Day
12h 26m
Waning Crescent, 3% of the Moon is Illuminated
Sep 3
Waning Crescent
Sep 5
New
Sep 12
First Quarter
Sep 19
Full
Sep 26
Last Quarter

Hourly Weather History & Observations

Time (AST) Temp. Heat Index Dew Point Humidity Pressure Visibility Wind Dir Wind Speed Gust Speed Precip Events Conditions
12:53 AM 82.0 °F 89.4 °F 75.9 °F 82% 29.93 in 10.0 mi ENE 6.9 mph - N/A   Mostly Cloudy
1:17 AM 82.4 °F 89.5 °F 75.2 °F 79% 29.92 in 10.0 mi ENE 9.2 mph - N/A   Scattered Clouds
1:53 AM 82.0 °F 88.6 °F 75.0 °F 79% 29.91 in 10.0 mi East 6.9 mph - N/A   Partly Cloudy
2:19 AM 82.4 °F 89.5 °F 75.2 °F 79% 29.90 in 10.0 mi ENE 9.2 mph - N/A   Mostly Cloudy
2:30 AM 82.4 °F 89.5 °F 75.2 °F 79% 29.90 in 10.0 mi ENE 10.4 mph - N/A   Mostly Cloudy
2:53 AM 82.0 °F 88.6 °F 75.0 °F 79% 29.89 in 10.0 mi ENE 5.8 mph - N/A   Scattered Clouds
3:53 AM 82.0 °F 88.6 °F 75.0 °F 79% 29.89 in 10.0 mi ENE 6.9 mph - N/A   Clear
4:53 AM 82.0 °F 87.9 °F 73.9 °F 76% 29.90 in 10.0 mi East 6.9 mph - N/A   Clear
5:53 AM 80.1 °F 84.5 °F 73.9 °F 81% 29.91 in 10.0 mi Calm Calm - N/A   Partly Cloudy
6:53 AM 79.0 °F - 75.0 °F 88% 29.91 in 10.0 mi NNW 4.6 mph - N/A   Scattered Clouds
7:53 AM 84.0 °F 92.6 °F 75.9 °F 76% 29.93 in 10.0 mi ENE 8.1 mph - N/A   Clear
8:53 AM 86.0 °F 96.9 °F 77.0 °F 74% 29.93 in 10.0 mi NE 10.4 mph - N/A   Partly Cloudy
9:53 AM 87.1 °F 98.8 °F 77.0 °F 72% 29.96 in 10.0 mi ENE 10.4 mph - N/A   Partly Cloudy
10:43 AM 80.6 °F 86.2 °F 75.2 °F 84% 29.96 in 2.0 mi NE 5.8 mph 24.2 mph 0.06 in Rain Light Rain
10:48 AM 82.4 °F 89.5 °F 75.2 °F 79% 29.96 in 9.0 mi ENE 8.1 mph - 0.06 in   Overcast
10:53 AM 82.0 °F 91.0 °F 78.1 °F 88% 29.96 in 4.0 mi NE 5.8 mph - 0.08 in Rain Rain
11:53 AM 80.1 °F 85.4 °F 75.9 °F 87% 29.95 in 4.0 mi East 12.7 mph 21.9 mph 0.03 in Rain Rain
12:53 PM 86.0 °F 99.3 °F 79.0 °F 79% 29.93 in 10.0 mi East 9.2 mph - 0.02 in   Partly Cloudy
1:53 PM 89.1 °F 101.4 °F 77.0 °F 67% 29.91 in 10.0 mi ENE 9.2 mph - N/A   Clear
2:53 PM 88.0 °F 100.2 °F 77.0 °F 70% 29.88 in 10.0 mi ENE 11.5 mph 18.4 mph N/A   Mostly Cloudy
3:53 PM 86.0 °F 96.9 °F 77.0 °F 74% 29.88 in 10.0 mi ENE 13.8 mph - N/A   Overcast
4:23 PM 82.4 °F 88.2 °F 73.4 °F 74% 29.89 in 9.0 mi ESE 12.7 mph 23.0 mph N/A   Overcast
4:53 PM 86.0 °F 96.0 °F 75.9 °F 72% 29.89 in 10.0 mi ENE 10.4 mph 17.3 mph N/A   Mostly Cloudy
5:44 PM 80.6 °F 86.2 °F 75.2 °F 84% 29.91 in 2.5 mi ESE 15.0 mph 21.9 mph 0.07 in Rain Light Rain
5:57 PM 78.8 °F - 77.0 °F 94% 29.90 in 2.0 mi East 6.9 mph - 0.00 in Rain Light Rain
6:05 PM 78.8 °F - 77.0 °F 94% 29.90 in 7.0 mi ESE 5.8 mph - 0.00 in Rain Light Rain
6:53 PM 79.0 °F - 79.0 °F 100% 29.91 in 10.0 mi Calm Calm - 0.00 in   Overcast
7:14 PM 82.4 °F 90.9 °F 77.0 °F 84% 29.92 in 10.0 mi East 8.1 mph - N/A   Mostly Cloudy
7:53 PM 82.9 °F 92.8 °F 78.1 °F 85% 29.93 in 10.0 mi East 10.4 mph - N/A   Scattered Clouds
8:53 PM 82.9 °F 91.8 °F 77.0 °F 82% 29.94 in 10.0 mi East 10.4 mph 17.3 mph 0.01 in   Mostly Cloudy
9:53 PM 82.9 °F 90.8 °F 75.9 °F 79% 29.96 in 10.0 mi East 12.7 mph 19.6 mph 0.00 in   Scattered Clouds
10:11 PM 78.8 °F - 75.2 °F 89% 29.96 in 2.0 mi East 5.8 mph 28.8 mph 0.10 in Rain Heavy Rain
10:20 PM 78.8 °F - 78.8 °F 100% 29.96 in 8.0 mi ENE 5.8 mph - 0.10 in Rain Light Rain
10:53 PM 82.0 °F 92.8 °F 80.1 °F 94% 29.96 in 10.0 mi ENE 9.2 mph - 0.10 in   Clear
11:45 PM 82.4 °F 92.4 °F 78.8 °F 89% 29.94 in 10.0 mi East 10.4 mph 17.3 mph N/A   Mostly Cloudy
11:53 PM 82.9 °F 90.8 °F 75.9 °F 79% 29.94 in 10.0 mi ENE 10.4 mph - N/A   Scattered Clouds